Regional Weather Roundup
Issued by NWS Cleveland, OH

Home | Current Version | Previous Version | Graphics & Text | Print | Product List | Glossary On
Versions: 1 2 3 4 5 6 7 8 9 10 11 12 13 14 15 16 17 18 19 20 21 22 23 24 25 26 27 28 29 30 31 32 33 34 35 36 37 38 39 40 41 42 43 44 45 46 47 48 49 50
510
ASUS41 KCLE 020202
RWRCLE
OHIO REGIONAL WEATHER ROUNDUP
NATIONAL WEATHER SERVICE CLEVELAND, OH
1000 PM EDT SUN MAY 01 2016

NOTE: "FAIR" INDICATES FEW OR NO CLOUDS BELOW 12,000 FEET WITH NO
SIGNIFICANT WEATHER AND/OR OBSTRUCTIONS TO VISIBILITY.

OHZ001>008-015>018-024>027-034-035-043-044-020300-
   NORTHWEST OHIO

CITY           SKY/WX    TMP DP  RH WIND       PRES   REMARKS
DEFIANCE       CLOUDY    53  50  89 E9        29.96R FOG
FINDLAY        CLOUDY    53  47  79 NE13      29.95R
TOLEDO EXPRESS CLOUDY    50  48  93 E14       29.97S FOG
TOLEDO EXEC    CLOUDY    51  47  86 NE6G17    29.99R
LIMA           CLOUDY    53  52  96 NE14      29.92S FOG
$$

OHZ009>014-019>023-028>033-038-089-020300-
   NORTHEAST OHIO

CITY           SKY/WX    TMP DP  RH WIND       PRES   REMARKS
CLE-HOPKINS    CLOUDY    53  48  83 NE10      30.01R
CLE-LAKEFRONT  CLOUDY    51  48  89 NE10      29.98S FOG
CUY CO. ARPT   CLOUDY    52  50  93 NE9       29.99S
LORAIN-ELYRIA  CLOUDY    51  46  83 NE7       29.99R
ASHTABULA      CLOUDY    47  46  97 NE6       30.01R FOG
AKRON-CANTON   CLOUDY    56  51  84 N7        29.97R
WOOSTER        CLOUDY    54  50  86 NE9       29.97S
MANSFIELD      CLOUDY    53  51  93 NE10      29.96R
YOUNGSTOWN     CLOUDY    54  50  86 N7        29.97S
$$

OHZ042-051>053-060>062-070>072-077>081-020300-
  SOUTHWEST OHIO

CITY           SKY/WX    TMP DP  RH WIND       PRES   REMARKS
CINC-COVINGTON PTCLDY    61  60  97 SE3       29.89S
CINC-LUNKEN    CLOUDY    60  60 100 SE5       29.89S
HAMILTON       MOCLDY    61  60  97 CALM      29.88F
DAYTON         CLOUDY    59  57  93 NE7       29.89R THUNDER
WRIGHT-PAT AFB TSTM      63  63 100 W5G26     29.89R FOG
DAYTON GENERAL MOCLDY    61  56  83 CALM      29.86F
WILMINGTON     CLOUDY    64  60  87 S7        29.89F
$$

OHZ036-037-039>041-045>050-054>059-063>069-073>076-082>088-020300-
  CENTRAL AND SOUTHEAST OHIO

CITY           SKY/WX    TMP DP  RH WIND       PRES   REMARKS
COLUMBUS       CLOUDY    66  56  70 CALM      29.89S THUNDER
OSU AIRPORT    CLOUDY    59  57  93 N9        29.90S THUNDER
BOLTON FIELD   NOT AVBL
RICKENBACK AFB RAIN      66  57  73 CALM      29.90F
NEWARK         CLOUDY    65  57  75 CALM      29.90S
MARION         CLOUDY    54  51  90 NE12      29.93F
LANCASTER      CLOUDY    65  57  75 CALM      29.89F
ZANESVILLE     CLOUDY    67  55  65 CALM      29.92S
NEW PHILLY     MOCLDY    63  57  81 N3        29.95R
$$




USA.gov is the U.S. government's official web portal to all federal, state and local government web resources and services.